GW5816 Weather Reports


time (UTC)temp
C
wind
direction
speed
KPH
gust
KPH
rain 1hr
cm
rain 24hr
cm
rain mn
cm
humidity
%
barometer
mb
20260504192142 25 91 3.2 4.8 0.00 0.00 0.00 33 1022.0
20260504191642 26 105 3.2 6.4 0.00 0.00 0.00 31 1022.0
20260504191143 25 144 3.2 4.8 0.00 0.00 0.00 32 1022.0
20260504190642 25 282 1.6 8.0 0.00 0.00 0.00 35 1022.0
20260504190145 25 208 4.8 6.4 0.00 0.00 0.00 32 1022.0
20260504185643 25 276 4.8 6.4 0.00 0.00 0.00 33 1023.0
20260504185143 25 114 0.0 6.4 0.00 0.00 0.00 32 1023.0
20260504184644 26 104 3.2 8.0 0.00 0.00 0.00 32 1023.0
20260504184143 25 264 3.2 4.8 0.00 0.00 0.00 33 1023.0
20260504183643 25 193 0.0 8.0 0.00 0.00 0.00 35 1023.0
20260504183144 26 118 4.8 8.0 0.00 0.00 0.00 34 1023.0
20260504182643 25 100 4.8 14.5 0.00 0.00 0.00 34 1023.0
20260504182143 25 288 3.2 4.8 0.00 0.00 0.00 37 1023.0
20260504181644 25 302 6.4 9.7 0.00 0.00 0.00 37 1023.0
20260504181144 25 278 4.8 6.4 0.00 0.00 0.00 34 1023.0
20260504180644 24 274 1.6 4.8 0.00 0.00 0.00 35 1023.0
20260504180144 23 295 8.0 8.0 0.00 0.00 0.00 36 1024.0
20260504175644 23 279 4.8 6.4 0.00 0.00 0.00 36 1024.0
20260504175144 24 289 4.8 6.4 0.00 0.00 0.00 34 1024.0
20260504174644 23 263 6.4 11.3 0.00 0.00 0.00 37 1024.0
20260504174146 24 249 4.8 8.0 0.00 0.00 0.00 38 1024.0
20260504173643 25 142 0.0 6.4 0.00 0.00 0.00 35 1024.0
20260504173143 23 288 4.8 12.9 0.00 0.00 0.00 39 1023.0
20260504172642 23 119 4.8 11.3 0.00 0.00 0.00 36 1024.0
20260504172143 24 242 1.6 6.4 0.00 0.00 0.00 38 1024.0
20260504171644 23 254 3.2 8.0 0.00 0.00 0.00 39 1024.0
20260504171144 22 275 1.6 6.4 0.00 0.00 0.00 41 1024.0
20260504170642 23 288 6.4 9.7 0.00 0.00 0.00 37 1024.0
20260504170144 23 164 0.0 6.4 0.00 0.00 0.00 39 1024.0
20260504160142 22 93 0.0 4.8 0.00 0.00 0.00 41 1025.0
20260504151145 21 112 4.8 8.0 0.00 0.00 0.00 42 1026.0
20260504150644 20 150 1.6 6.4 0.00 0.00 0.00 45 1026.0
20260504150144 20 278 0.0 8.0 0.00 0.00 0.00 44 1026.0
20260504141146 17 289 0.0 11.3 0.00 0.00 0.00 47 1026.0
20260504140646 18 84 1.6 8.0 0.00 0.00 0.00 47 1026.0
20260504140147 17 93 1.6 3.2 0.00 0.00 0.00 48 1026.0
20260504130644 13 276 3.2 4.8 0.00 0.00 0.00 73 1026.0
20260504130144 12 174 0.0 0.0 0.00 0.00 0.00 83 1026.0
20260504120143 6 290 0.0 1.6 0.00 0.00 0.00 99 1026.0
20260504110642 5 246 0.0 0.0 0.00 0.00 0.00 98 1025.0
20260504110145 5 336 0.0 0.0 0.00 0.00 0.00 98 1025.0
20260504100143 5 326 0.0 1.6 0.00 0.00 0.00 98 1025.0
20260504081644 6 230 0.0 0.0 0.00 0.00 0.00 95 1024.0
20260504081145 6 230 0.0 0.0 0.00 0.00 0.00 95 1024.0
20260504080644 6 230 0.0 0.0 0.00 0.00 0.00 95 1024.0
20260504080141 6 229 0.0 0.0 0.00 0.00 0.00 94 1024.0
20260504070204 7 304 0.0 0.0 0.00 0.00 0.00 92 1025.0
20260504060154 7 217 0.0 0.0 0.00 0.00 0.00 89 1024.0
20260504050641 8 217 0.0 0.0 0.00 0.00 0.00 86 1024.0
20260504050142 8 309 0.0 0.0 0.00 0.00 0.00 86 1025.0
20260504045643 8 297 0.0 0.0 0.00 0.00 0.00 85 1024.0
20260504045142 8 300 1.6 1.6 0.00 0.00 0.00 85 1025.0
20260504044641 8 315 0.0 0.0 0.00 0.00 0.00 85 1024.0
20260504044142 9 147 0.0 0.0 0.00 0.00 0.00 85 1025.0
20260504043641 9 147 0.0 0.0 0.00 0.00 0.00 84 1024.0
20260504043141 9 147 0.0 0.0 0.00 0.00 0.00 83 1024.0
20260504042644 9 311 0.0 1.6 0.00 0.00 0.00 82 1025.0
20260504042142 9 322 0.0 1.6 0.00 0.00 0.00 82 1025.0
20260504041645 9 269 0.0 1.6 0.00 0.00 0.00 82 1025.0
20260504041142 9 309 0.0 0.0 0.00 0.00 0.00 81 1024.0
20260504040642 9 269 0.0 0.0 0.00 0.00 0.00 81 1025.0
20260504040142 9 287 0.0 0.0 0.00 0.00 0.00 81 1024.0
20260504035641 9 287 0.0 0.0 0.00 0.00 0.00 80 1025.0
20260504035142 10 287 0.0 0.0 0.00 0.00 0.00 80 1024.0
20260504034642 10 287 0.0 0.0 0.00 0.00 0.00 81 1024.0
20260504034144 10 246 0.0 0.0 0.00 0.00 0.00 81 1024.0
20260504033641 10 217 0.0 0.0 0.00 0.00 0.00 81 1025.0
20260504033141 10 329 0.0 0.0 0.00 0.00 0.00 80 1025.0
20260504032641 10 269 0.0 0.0 0.00 0.00 0.00 80 1024.0
20260504032143 10 309 0.0 0.0 0.00 0.00 0.00 79 1025.0
20260504031642 10 205 0.0 0.0 0.00 0.00 0.00 79 1024.0
20260504031143 10 205 0.0 0.0 0.00 0.00 0.00 79 1025.0
20260504030642 10 304 0.0 0.0 0.00 0.00 0.00 79 1025.0
20260504030143 10 304 0.0 1.6 0.00 0.00 0.00 78 1025.0
20260504025642 10 224 0.0 0.0 0.00 0.00 0.00 78 1025.0
20260504025141 10 309 0.0 0.0 0.00 0.00 0.00 77 1025.0
20260504024643 10 242 0.0 0.0 0.00 0.00 0.00 77 1025.0
20260504024141 11 309 0.0 0.0 0.00 0.00 0.00 76 1024.0
20260504023641 11 297 0.0 0.0 0.00 0.00 0.00 75 1024.0
20260504023142 11 293 0.0 0.0 0.00 0.00 0.00 74 1025.0
20260504022641 11 224 0.0 1.6 0.00 0.00 0.00 75 1024.0
20260504022146 11 315 0.0 0.0 0.00 0.00 0.00 74 1025.0
20260504021642 11 333 0.0 1.6 0.00 0.00 0.00 73 1024.0
20260504021142 11 333 0.0 0.0 0.00 0.00 0.00 72 1024.0
20260504020646 12 315 0.0 0.0 0.00 0.00 0.00 71 1024.0
20260504020141 12 224 0.0 0.0 0.00 0.00 0.00 70 1024.0
20260504015641 12 224 0.0 0.0 0.00 0.00 0.00 69 1024.0
20260504015141 12 315 0.0 1.6 0.00 0.00 0.00 68 1024.0
20260504014641 12 310 0.0 1.6 0.00 0.00 0.00 68 1024.0
20260504014141 12 311 1.6 1.6 0.00 0.00 0.00 67 1024.0
20260504013642 13 297 0.0 0.0 0.00 0.00 0.00 66 1024.0
20260504013144 13 282 0.0 1.6 0.00 0.00 0.00 65 1024.0
20260504012641 13 297 0.0 0.0 0.00 0.00 0.00 64 1024.0
20260504012141 13 297 0.0 0.0 0.00 0.00 0.00 62 1023.0
20260504011641 13 224 0.0 0.0 0.00 0.00 0.00 62 1023.0
20260504011141 13 315 0.0 0.0 0.00 0.00 0.00 61 1023.0
20260504010641 14 322 0.0 0.0 0.00 0.00 0.00 59 1024.0
20260504010143 14 297 0.0 1.6 0.00 0.00 0.00 58 1024.0
20260504005641 15 269 0.0 0.0 0.00 0.00 0.00 57 1023.0
20260504005141 15 272 1.6 1.6 0.00 0.00 0.00 56 1023.0
20260504004641 15 269 0.0 0.0 0.00 0.00 0.00 54 1023.0
20260504004141 15 283 0.0 1.6 0.00 0.00 0.00 52 1023.0
20260504003641 16 269 0.0 0.0 0.00 0.00 0.00 51 1023.0
20260504003141 16 242 0.0 0.0 0.00 0.00 0.00 49 1023.0
20260504002643 16 269 0.0 3.2 0.00 0.00 0.00 48 1023.0
20260504002142 17 304 0.0 3.2 0.00 0.00 0.00 46 1023.0
20260504001641 17 34 0.0 3.2 0.00 0.00 0.00 44 1023.0
20260504001141 17 99 3.2 3.2 0.00 0.00 0.00 43 1023.0
20260504000641 17 224 0.0 4.8 0.00 0.00 0.00 42 1023.0
20260504000141 17 138 3.2 4.8 0.00 0.00 0.00 41 1023.0
20260503235642 18 94 3.2 4.8 0.00 0.00 0.00 40 1023.0
20260503235142 18 284 1.6 6.4 0.00 0.00 0.00 41 1023.0
20260503234642 18 94 3.2 6.4 0.00 0.00 0.00 39 1023.0
20260503234144 18 78 4.8 8.0 0.00 0.00 0.00 38 1023.0
20260503233642 18 209 0.0 6.4 0.00 0.00 0.00 38 1023.0
20260503233141 19 115 1.6 4.8 0.00 0.00 0.00 38 1023.0
20260503232641 19 240 0.0 4.8 0.00 0.00 0.00 38 1023.0
20260503232141 20 79 8.0 8.0 0.00 0.00 0.00 36 1023.0
20260503231643 20 306 1.6 4.8 0.00 0.00 0.00 35 1023.0
20260503231143 20 247 0.0 4.8 0.00 0.00 0.00 36 1023.0
20260503230642 21 111 3.2 6.4 0.00 0.00 0.00 33 1023.0
20260503230141 21 102 8.0 9.7 0.00 0.00 0.00 34 1024.0
20260503225641 21 341 0.0 4.8 0.00 0.00 0.00 33 1024.0
20260503225142 21 289 3.2 4.8 0.00 0.00 0.00 34 1024.0
20260503224642 21 80 4.8 11.3 0.00 0.00 0.00 32 1023.0
20260503224142 22 116 4.8 14.5 0.00 0.00 0.00 32 1023.0
20260503223641 22 58 3.2 4.8 0.00 0.00 0.00 32 1023.0
20260503223141 21 318 1.6 6.4 0.00 0.00 0.00 33 1023.0
20260503222641 21 279 3.2 8.0 0.00 0.00 0.00 33 1023.0
20260503222141 21 131 8.0 14.5 0.00 0.00 0.00 31 1024.0
20260503221641 21 282 1.6 17.7 0.00 0.00 0.00 33 1023.0
20260503221142 21 0 0.0 9.7 0.00 0.00 0.00 32 1023.0
20260503220641 21 140 4.8 11.3 0.00 0.00 0.00 33 1024.0
20260503220145 21 109 4.8 14.5 0.00 0.00 0.00 32 1024.0
20260503215641 21 231 0.0 8.0 0.00 0.00 0.00 33 1023.0
20260503215141 21 302 11.3 12.9 0.00 0.00 0.00 34 1023.0
20260503214642 22 52 4.8 8.0 0.00 0.00 0.00 32 1023.0
20260503214141 21 102 0.0 6.4 0.00 0.00 0.00 34 1024.0
20260503213642 21 159 1.6 9.7 0.00 0.00 0.00 35 1023.0
20260503213142 21 319 4.8 9.7 0.00 0.00 0.00 36 1023.0
20260503212643 20 211 1.6 8.0 0.00 0.00 0.00 35 1024.0
20260503212143 21 296 8.0 8.0 0.00 0.00 0.00 35 1024.0
20260503211642 21 68 8.0 11.3 0.00 0.00 0.00 33 1024.0
20260503211142 21 234 6.4 11.3 0.00 0.00 0.00 32 1024.0
20260503210641 22 298 4.8 6.4 0.00 0.00 0.00 30 1024.0
20260503210141 23 84 6.4 11.3 0.00 0.00 0.00 30 1024.0
20260503205641 21 162 1.6 8.0 0.00 0.00 0.00 31 1024.0
20260503205141 21 306 0.0 6.4 0.00 0.00 0.00 29 1024.0
20260503204641 22 268 3.2 11.3 0.00 0.00 0.00 29 1024.0
20260503204141 21 354 0.0 6.4 0.00 0.00 0.00 31 1024.0
20260503203642 22 125 4.8 9.7 0.00 0.00 0.00 31 1024.0
20260503203142 22 87 9.7 11.3 0.00 0.00 0.00 32 1024.0
20260503202641 21 114 1.6 9.7 0.00 0.00 0.00 34 1024.0
20260503202143 21 247 6.4 8.0 0.00 0.00 0.00 34 1024.0
20260503201642 21 69 6.4 11.3 0.00 0.00 0.00 33 1025.0
20260503201141 21 78 3.2 8.0 0.00 0.00 0.00 32 1025.0
20260503200643 20 83 8.0 8.0 0.00 0.00 0.00 33 1025.0
20260503200143 20 190 3.2 8.0 0.00 0.00 0.00 32 1025.0
20260503195641 20 88 4.8 20.9 0.00 0.00 0.00 31 1025.0
20260503195141 21 307 1.6 17.7 0.00 0.00 0.00 31 1025.0
20260503194641 21 232 3.2 4.8 0.00 0.00 0.00 31 1025.0
20260503194141 21 78 9.7 9.7 0.00 0.00 0.00 31 1025.0
20260503193642 20 87 4.8 17.7 0.00 0.00 0.00 29 1025.0
20260503193144 21 89 8.0 14.5 0.00 0.00 0.00 28 1025.0
20260503192642 21 107 8.0 11.3 0.00 0.00 0.00 26 1025.0